,,,PA_Meas_PMT16A,,PR_Meas_QMR101_102,,RH_Meas_QMH101,,SR_Meas_QMS101,,TA_Meas_QMH101,,GenWind,,GenWind,
date,time,status,PA,status,PR,status,RH,status,SR,status,TA,status,DirAvg,status,SpdAvg,
2011-02-07, 00:00:04,VALID,999.296,VALID,0,VALID,90.35,VALID,0.112286,VALID,24.2458,VALID,51,VALID,0.895703,
2011-02-07, 00:01:04,VALID,999.307,VALID,0,VALID,90.4873,VALID,0,VALID,24.2866,VALID,51,VALID,0.732813,
2011-02-07, 00:02:04,VALID,999.299,VALID,0,VALID,90.5102,VALID,0,VALID,24.2263,VALID,51,VALID,0.564062,
2011-02-07, 00:03:04,VALID,999.277,VALID,0,VALID,90.6857,VALID,0,VALID,24.2458,VALID,51,VALID,0.432813,
2011-02-07, 00:04:04,VALID,999.255,VALID,0,VALID,90.8688,VALID,0,VALID,24.2671,VALID,51,VALID,0.466797,
2011-02-07, 00:05:04,VALID,999.242,VALID,0,VALID,90.9527,VALID,0,VALID,24.2458,VALID,51,VALID,0.290234,
2011-02-07, 00:06:04,VALID,999.248,VALID,0,VALID,91.0671,VALID,0,VALID,24.2653,VALID,51,VALID,0.180078,
2011-02-07, 00:07:04,VALID,999.213,VALID,0,VALID,91.1282,VALID,0,VALID,24.2263,VALID,51,VALID,0,
2011-02-07, 00:08:04,VALID,999.205,VALID,0,VALID,91.174,VALID,0,VALID,24.2263,VALID,51,VALID,0,
2011-02-07, 00:09:04,VALID,999.234,VALID,0,VALID,91.2045,VALID,0.112286,VALID,24.2067,VALID,51,VALID,0.0472656,
2011-02-07, 00:10:04,VALID,999.196,VALID,0,VALID,91.2121,VALID,0.112286,VALID,24.1872,VALID,51,VALID,0.059375,
2011-02-07, 00:11:04,VALID,999.186,VALID,0,VALID,91.2503,VALID,0,VALID,24.1677,VALID,51,VALID,0,
2011-02-07, 00:12:04,VALID,999.171,VALID,0,VALID,91.2655,VALID,0,VALID,24.1482,VALID,51,VALID,0.473047,
2011-02-07, 00:13:04,VALID,999.2,VALID,0,VALID,91.3418,VALID,0,VALID,24.1482,VALID,33,VALID,0.905469,
2011-02-07, 00:14:04,VALID,999.158,VALID,0,VALID,91.3952,VALID,0,VALID,24.1287,VALID,32,VALID,0.952344,
2011-02-07, 00:15:04,VALID,999.162,VALID,0,VALID,91.4563,VALID,0,VALID,24.1305,VALID,30,VALID,0.945703,
2011-02-07, 00:16:04,VALID,999.173,VALID,0,VALID,91.4639,VALID,0,VALID,24.0897,VALID,30,VALID,0.907422,
2011-02-07, 00:17:04,VALID,999.185,VALID,0,VALID,91.4791,VALID,0,VALID,24.0506,VALID,30,VALID,1.03789,
2011-02-07, 00:18:04,VALID,999.166,VALID,0,VALID,91.4028,VALID,0,VALID,23.9921,VALID,30,VALID,0.952344,
2011-02-07, 00:19:04,VALID,999.183,VALID,0,VALID,91.3189,VALID,0,VALID,23.9549,VALID,30,VALID,0.975,
2011-02-07, 00:20:04,VALID,999.193,VALID,0,VALID,91.2655,VALID,0.112286,VALID,23.914,VALID,30,VALID,0.838281,
2011-02-07, 00:21:04,VALID,999.181,VALID,0,VALID,91.235,VALID,0,VALID,23.8945,VALID,30,VALID,0.619141,
2011-02-07, 00:22:04,VALID,999.165,VALID,0,VALID,91.2045,VALID,0,VALID,23.8768,VALID,30,VALID,0.472266,
2011-02-07, 00:23:04,VALID,999.147,VALID,0,VALID,91.2121,VALID,0,VALID,23.8768,VALID,30,VALID,0.388672,
2011-02-07, 00:24:04,VALID,999.147,VALID,0,VALID,91.2808,VALID,0,VALID,23.875,VALID,30,VALID,0.264844,
2011-02-07, 00:25:04,VALID,999.15,VALID,0,VALID,91.3266,VALID,0,VALID,23.875,VALID,30,VALID,0.346875,
2011-02-07, 00:26:04,VALID,999.108,VALID,0,VALID,91.3952,VALID,0,VALID,23.8555,VALID,30,VALID,0.463281,
2011-02-07, 00:27:04,VALID,999.123,VALID,0,VALID,91.4639,VALID,0.112286,VALID,23.8963,VALID,34,VALID,0.405469,
2011-02-07, 00:28:04,VALID,999.065,VALID,0,VALID,91.4944,VALID,0.112286,VALID,23.8945,VALID,34,VALID,0.330859,
2011-02-07, 00:29:04,VALID,999.062,VALID,0,VALID,91.5097,VALID,0,VALID,23.8945,VALID,34,VALID,0.009375,
2011-02-07, 00:30:04,VALID,999.067,VALID,0,VALID,91.502,VALID,0,VALID,23.8963,VALID,34,VALID,0.00976563,
2011-02-07, 00:31:04,VALID,999.058,VALID,0,VALID,91.5402,VALID,0,VALID,23.8945,VALID,34,VALID,0.434766,
2011-02-07, 00:32:04,VALID,999.065,VALID,0,VALID,91.5554,VALID,0,VALID,23.8945,VALID,34,VALID,0.370703,
2011-02-07, 00:33:04,VALID,999.061,VALID,0,VALID,91.5554,VALID,0,VALID,23.9336,VALID,34,VALID,0.323828,
2011-02-07, 00:34:04,VALID,999.044,VALID,0,VALID,91.5707,VALID,0,VALID,23.9336,VALID,34,VALID,0.297266,
2011-02-07, 00:35:04,VALID,999.024,VALID,0,VALID,91.5783,VALID,0,VALID,23.9336,VALID,34,VALID,0.258203,
2011-02-07, 00:36:04,VALID,999.051,VALID,0,VALID,91.5326,VALID,0,VALID,23.914,VALID,34,VALID,0.258203,
2011-02-07, 00:37:04,VALID,999.024,VALID,0,VALID,91.5173,VALID,0,VALID,23.9336,VALID,34,VALID,0.217187,
2011-02-07, 00:38:04,VALID,999.033,VALID,0,VALID,91.5173,VALID,0,VALID,23.9336,VALID,34,VALID,0.303906,
2011-02-07, 00:39:04,VALID,999.039,VALID,0,VALID,91.5097,VALID,0,VALID,23.9549,VALID,34,VALID,0.563281,
2011-02-07, 00:40:04,VALID,999.058,VALID,0,VALID,91.5173,VALID,0,VALID,23.9336,VALID,34,VALID,0.858984,
2011-02-07, 00:41:04,VALID,999.063,VALID,0,VALID,91.4868,VALID,0,VALID,23.9336,VALID,24,VALID,0.791016,
2011-02-07, 00:42:04,VALID,999.052,VALID,0,VALID,91.3571,VALID,0,VALID,23.914,VALID,24,VALID,0.387891,
2011-02-07, 00:43:04,VALID,999.082,VALID,0,VALID,91.2731,VALID,0,VALID,23.9159,VALID,24,VALID,0,
2011-02-07, 00:44:04,VALID,999.078,VALID,0,VALID,91.1968,VALID,0,VALID,23.8945,VALID,24,VALID,0,
2011-02-07, 00:45:04,VALID,999.052,VALID,0,VALID,91.1053,VALID,0.112286,VALID,23.8945,VALID,24,VALID,0,
2011-02-07, 00:46:04,VALID,999.034,VALID,0,VALID,91.0671,VALID,0,VALID,23.875,VALID,24,VALID,0,
2011-02-07, 00:47:04,VALID,999.021,VALID,0,VALID,91.0214,VALID,0,VALID,23.8555,VALID,24,VALID,0,
2011-02-07, 00:48:04,VALID,999.037,VALID,0,VALID,91.0061,VALID,0,VALID,23.8555,VALID,24,VALID,0,
2011-02-07, 00:49:04,VALID,999.019,VALID,0,VALID,91.0443,VALID,0,VALID,23.8768,VALID,24,VALID,0.121484,
2011-02-07, 00:50:04,VALID,999.035,VALID,0,VALID,91.0824,VALID,0.112286,VALID,23.8555,VALID,24,VALID,0.377734,
2011-02-07, 00:51:04,VALID,999.006,VALID,0,VALID,91.2045,VALID,0,VALID,23.9159,VALID,24,VALID,0.409766,
2011-02-07, 00:52:04,VALID,999.001,VALID,0,VALID,91.235,VALID,0.112286,VALID,23.914,VALID,24,VALID,0.471875,
2011-02-07, 00:53:04,VALID,998.966,VALID,0,VALID,91.2197,VALID,0,VALID,23.9549,VALID,24,VALID,0.407031,
2011-02-07, 00:54:04,VALID,998.967,VALID,0,VALID,91.1816,VALID,0,VALID,23.9726,VALID,106,VALID,0.591016,
2011-02-07, 00:55:04,VALID,998.966,VALID,0,VALID,91.0366,VALID,0.112286,VALID,23.9726,VALID,112,VALID,0.468359,
2011-02-07, 00:56:04,VALID,998.972,VALID,0,VALID,90.8688,VALID,0,VALID,23.9921,VALID,111,VALID,0.426172,
2011-02-07, 00:57:04,VALID,998.937,VALID,0,VALID,90.7162,VALID,0,VALID,24.0348,VALID,111,VALID,0.251172,
2011-02-07, 00:58:04,VALID,998.919,VALID,0,VALID,90.6094,VALID,0,VALID,24.0543,VALID,111,VALID,0.226563,
2011-02-07, 00:59:04,VALID,998.911,VALID,0,VALID,90.5636,VALID,0,VALID,24.0543,VALID,111,VALID,0.303125,
2011-02-07, 01:00:04,VALID,998.919,VALID,0,VALID,90.4797,VALID,0,VALID,24.072,VALID,111,VALID,0.0597656,
2011-02-07, 01:01:04,VALID,998.91,VALID,0,VALID,90.3728,VALID,0,VALID,24.072,VALID,112,VALID,0,
2011-02-07, 01:02:04,VALID,998.896,VALID,0,VALID,90.2889,VALID,0,VALID,24.072,VALID,111,VALID,0,
2011-02-07, 01:03:04,VALID,998.886,VALID,0,VALID,90.2889,VALID,0,VALID,24.072,VALID,111,VALID,0,
2011-02-07, 01:04:04,VALID,998.868,VALID,0,VALID,90.2508,VALID,0,VALID,24.0525,VALID,111,VALID,0,
2011-02-07, 01:05:04,VALID,998.834,VALID,0,VALID,90.1592,VALID,0,VALID,24.0329,VALID,111,VALID,0,
2011-02-07, 01:06:04,VALID,998.861,VALID,0,VALID,90.0982,VALID,0,VALID,24.0329,VALID,111,VALID,0,
2011-02-07, 01:07:04,VALID,998.834,VALID,0,VALID,90.0448,VALID,0,VALID,24.072,VALID,111,VALID,0,
2011-02-07, 01:08:04,VALID,998.822,VALID,0,VALID,89.9837,VALID,0,VALID,24.072,VALID,111,VALID,0,
2011-02-07, 01:09:04,VALID,998.79,VALID,0,VALID,89.9227,VALID,0,VALID,24.0915,VALID,111,VALID,0,
2011-02-07, 01:10:04,VALID,998.782,VALID,0,VALID,89.8693,VALID,0,VALID,24.0915,VALID,111,VALID,0,
2011-02-07, 01:11:04,VALID,998.759,VALID,0,VALID,89.8311,VALID,0,VALID,24.0915,VALID,111,VALID,0,
2011-02-07, 01:12:04,VALID,998.731,VALID,0,VALID,89.7396,VALID,0,VALID,24.0915,VALID,111,VALID,0,
2011-02-07, 01:13:04,VALID,998.72,VALID,0,VALID,89.6786,VALID,0,VALID,24.0915,VALID,111,VALID,0,
2011-02-07, 01:14:04,VALID,998.708,VALID,0,VALID,89.6251,VALID,0,VALID,24.0915,VALID,111,VALID,0,
2011-02-07, 01:15:04,VALID,998.714,VALID,0,VALID,89.6251,VALID,0,VALID,24.1324,VALID,110,VALID,0,
2011-02-07, 01:16:04,VALID,998.679,VALID,0,VALID,89.6557,VALID,0,VALID,24.1519,VALID,104,VALID,0,
2011-02-07, 01:17:04,VALID,998.656,VALID,0,VALID,89.7091,VALID,0,VALID,24.111,VALID,80,VALID,0,
2011-02-07, 01:18:04,VALID,998.645,VALID,0,VALID,89.7091,VALID,0,VALID,24.111,VALID,80,VALID,0,
2011-02-07, 01:19:04,VALID,998.63,VALID,0,VALID,89.6938,VALID,0,VALID,24.1324,VALID,80,VALID,0,
2011-02-07, 01:20:04,VALID,998.618,VALID,0,VALID,89.7167,VALID,0,VALID,24.111,VALID,80,VALID,0,
2011-02-07, 01:21:04,VALID,998.604,VALID,0,VALID,89.6786,VALID,0,VALID,24.111,VALID,80,VALID,0,
2011-02-07, 01:22:04,VALID,998.609,VALID,0,VALID,89.7777,VALID,0,VALID,24.1128,VALID,80,VALID,0,
2011-02-07, 01:23:04,VALID,998.582,VALID,0,VALID,89.9914,VALID,0,VALID,24.1128,VALID,70,VALID,0,
2011-02-07, 01:24:04,VALID,998.587,VALID,0,VALID,90.1134,VALID,0,VALID,24.0915,VALID,58,VALID,0.794531,
2011-02-07, 01:25:04,VALID,998.579,VALID,0,VALID,90.1897,VALID,0,VALID,24.072,VALID,58,VALID,0.932422,
2011-02-07, 01:26:04,VALID,998.599,VALID,0,VALID,90.2508,VALID,0,VALID,24.0525,VALID,58,VALID,0.962891,
2011-02-07, 01:27:04,VALID,998.607,VALID,0,VALID,90.2584,VALID,0,VALID,24.0311,VALID,59,VALID,0.929297,
2011-02-07, 01:28:04,VALID,998.607,VALID,0,VALID,90.1974,VALID,0,VALID,24.0329,VALID,61,VALID,0.949609,
2011-02-07, 01:29:04,VALID,998.604,VALID,0,VALID,90.1668,VALID,0,VALID,23.9921,VALID,61,VALID,0.939844,
2011-02-07, 01:30:04,VALID,998.571,VALID,0,VALID,90.1974,VALID,0,VALID,23.9921,VALID,61,VALID,0.748828,
2011-02-07, 01:31:04,VALID,998.568,VALID,0,VALID,90.2813,VALID,0,VALID,23.9921,VALID,63,VALID,0.681641,
2011-02-07, 01:32:04,VALID,998.576,VALID,0,VALID,90.3576,VALID,0,VALID,23.9726,VALID,63,VALID,0.649609,
2011-02-07, 01:33:04,VALID,998.525,VALID,0,VALID,90.4034,VALID,0,VALID,23.9531,VALID,63,VALID,0.549609,
2011-02-07, 01:34:04,VALID,998.533,VALID,0,VALID,90.3805,VALID,0,VALID,23.9336,VALID,63,VALID,0.198047,
2011-02-07, 01:35:04,VALID,998.503,VALID,0,VALID,90.3728,VALID,0,VALID,23.9354,VALID,63,VALID,0.25625,
2011-02-07, 01:36:04,VALID,998.502,VALID,0,VALID,90.3881,VALID,0,VALID,23.9159,VALID,63,VALID,0,
2011-02-07, 01:37:04,VALID,998.524,VALID,0,VALID,90.3881,VALID,0,VALID,23.8945,VALID,63,VALID,0,
2011-02-07, 01:38:04,VALID,998.55,VALID,0,VALID,90.4034,VALID,0,VALID,23.875,VALID,63,VALID,0,
2011-02-07, 01:39:04,VALID,998.545,VALID,0,VALID,90.4263,VALID,0,VALID,23.875,VALID,63,VALID,0,
2011-02-07, 01:40:04,VALID,998.532,VALID,0,VALID,90.4568,VALID,0.112286,VALID,23.8555,VALID,63,VALID,0,
2011-02-07, 01:41:04,VALID,998.557,VALID,0,VALID,90.5102,VALID,0,VALID,23.8768,VALID,63,VALID,0,
2011-02-07, 01:42:04,VALID,998.529,VALID,0,VALID,90.4873,VALID,0,VALID,23.8555,VALID,63,VALID,0.0667969,
2011-02-07, 01:43:04,VALID,998.513,VALID,0,VALID,90.5102,VALID,0,VALID,23.8555,VALID,114,VALID,0.752734,
2011-02-07, 01:44:04,VALID,998.468,VALID,0,VALID,90.4415,VALID,0,VALID,23.8555,VALID,114,VALID,0.6,
2011-02-07, 01:45:04,VALID,998.454,VALID,0,VALID,90.3194,VALID,0,VALID,23.8945,VALID,114,VALID,0.555859,
2011-02-07, 01:46:04,VALID,998.459,VALID,0,VALID,90.1745,VALID,0,VALID,23.9354,VALID,114,VALID,0.507422,
2011-02-07, 01:47:04,VALID,998.428,VALID,0,VALID,89.9837,VALID,0.112286,VALID,23.9726,VALID,121,VALID,0.607031,
2011-02-07, 01:48:04,VALID,998.422,VALID,0,VALID,89.8083,VALID,0,VALID,23.9921,VALID,121,VALID,0.613281,
2011-02-07, 01:49:04,VALID,998.394,VALID,0,VALID,89.7396,VALID,0,VALID,24.0329,VALID,154,VALID,0.592969,
2011-02-07, 01:50:04,VALID,998.404,VALID,0,VALID,89.6786,VALID,0,VALID,24.0311,VALID,153,VALID,0.451953,
2011-02-07, 01:51:04,VALID,998.362,VALID,0,VALID,89.6023,VALID,0,VALID,24.0506,VALID,153,VALID,0.701953,
2011-02-07, 01:52:04,VALID,998.341,VALID,0,VALID,89.6175,VALID,0,VALID,24.072,VALID,153,VALID,0.355469,
2011-02-07, 01:53:04,VALID,998.358,VALID,0,VALID,89.5565,VALID,0,VALID,24.0701,VALID,153,VALID,0.40625,
2011-02-07, 01:54:04,VALID,998.354,VALID,0,VALID,89.5565,VALID,0,VALID,24.0701,VALID,153,VALID,0.355859,
2011-02-07, 01:55:04,VALID,998.331,VALID,0,VALID,89.5107,VALID,0,VALID,24.0506,VALID,153,VALID,0.370703,
2011-02-07, 01:56:04,VALID,998.309,VALID,0,VALID,89.5489,VALID,0,VALID,24.0311,VALID,153,VALID,0.242578,
2011-02-07, 01:57:04,VALID,998.318,VALID,0,VALID,89.6557,VALID,0,VALID,24.0311,VALID,153,VALID,0.0296875,
2011-02-07, 01:58:04,VALID,998.326,VALID,0,VALID,89.7625,VALID,0.112286,VALID,24.0116,VALID,153,VALID,0,
2011-02-07, 01:59:04,VALID,998.321,VALID,0,VALID,89.8311,VALID,0,VALID,24.0116,VALID,153,VALID,0,
2011-02-07, 02:00:04,VALID,998.315,VALID,0,VALID,89.8693,VALID,0,VALID,24.0116,VALID,153,VALID,0.0132813,
2011-02-07, 02:01:04,VALID,998.296,VALID,0,VALID,89.8922,VALID,0,VALID,24.0134,VALID,153,VALID,0,
2011-02-07, 02:02:04,VALID,998.289,VALID,0,VALID,89.8998,VALID,0.112286,VALID,23.9921,VALID,153,VALID,0.0734375,
2011-02-07, 02:03:04,VALID,998.278,VALID,0,VALID,89.8998,VALID,0,VALID,23.9531,VALID,153,VALID,0.307813,
2011-02-07, 02:04:04,VALID,998.29,VALID,0,VALID,89.9609,VALID,0,VALID,23.9336,VALID,153,VALID,0.263281,
2011-02-07, 02:05:04,VALID,998.287,VALID,0,VALID,90.0829,VALID,0,VALID,23.8945,VALID,153,VALID,0.371094,
2011-02-07, 02:06:04,VALID,998.294,VALID,0,VALID,90.2126,VALID,0,VALID,23.8945,VALID,18,VALID,0.770703,
2011-02-07, 02:07:04,VALID,998.289,VALID,0,VALID,90.3347,VALID,0,VALID,23.8963,VALID,18,VALID,0.937109,
2011-02-07, 02:08:04,VALID,998.293,VALID,0,VALID,90.3881,VALID,0,VALID,23.836,VALID,18,VALID,0.875391,
2011-02-07, 02:09:05,VALID,998.308,VALID,0,VALID,90.4797,VALID,0.112286,VALID,23.8165,VALID,18,VALID,0.505859,
2011-02-07, 02:10:05,VALID,998.325,VALID,0,VALID,90.5407,VALID,0,VALID,23.797,VALID,19,VALID,0.59375,
2011-02-07, 02:11:05,VALID,998.313,VALID,0,VALID,90.7085,VALID,0,VALID,23.8165,VALID,26,VALID,0.688281,
2011-02-07, 02:12:05,VALID,998.306,VALID,0,VALID,90.8535,VALID,0,VALID,23.8768,VALID,26,VALID,0.614844,
2011-02-07, 02:13:05,VALID,998.283,VALID,0,VALID,90.8917,VALID,0,VALID,23.9159,VALID,26,VALID,0.394922,
2011-02-07, 02:14:05,VALID,998.269,VALID,0,VALID,90.8077,VALID,0,VALID,23.9159,VALID,26,VALID,0.394141,
2011-02-07, 02:15:05,VALID,998.25,VALID,0,VALID,90.7543,VALID,0,VALID,23.9336,VALID,26,VALID,0.341406,
2011-02-07, 02:16:05,VALID,998.255,VALID,0,VALID,90.6857,VALID,0,VALID,23.9531,VALID,26,VALID,0.504687,
2011-02-07, 02:17:05,VALID,998.245,VALID,0,VALID,90.6017,VALID,0,VALID,23.9531,VALID,26,VALID,0.429297,
2011-02-07, 02:18:05,VALID,998.28,VALID,0,VALID,90.4644,VALID,0,VALID,23.9531,VALID,26,VALID,0.436719,
2011-02-07, 02:19:05,VALID,998.249,VALID,0,VALID,90.3271,VALID,0,VALID,23.9549,VALID,26,VALID,0.393359,
2011-02-07, 02:20:05,VALID,998.225,VALID,0,VALID,90.2279,VALID,0,VALID,23.9336,VALID,26,VALID,0.383984,
2011-02-07, 02:21:05,VALID,998.234,VALID,0,VALID,90.2126,VALID,0,VALID,23.9159,VALID,26,VALID,0.297656,
2011-02-07, 02:22:05,VALID,998.239,VALID,0,VALID,90.0982,VALID,0,VALID,23.875,VALID,26,VALID,0.300781,
2011-02-07, 02:23:05,VALID,998.21,VALID,0,VALID,90.0906,VALID,0,VALID,23.8573,VALID,26,VALID,0.389844,
2011-02-07, 02:24:05,VALID,998.215,VALID,0,VALID,90.1363,VALID,0,VALID,23.8378,VALID,26,VALID,0.375,
2011-02-07, 02:25:05,VALID,998.198,VALID,0,VALID,90.2279,VALID,0,VALID,23.7988,VALID,26,VALID,0.248828,
2011-02-07, 02:26:05,VALID,998.2,VALID,0,VALID,90.2889,VALID,0,VALID,23.7793,VALID,26,VALID,0.251953,
2011-02-07, 02:27:05,VALID,998.185,VALID,0,VALID,90.3576,VALID,0,VALID,23.7597,VALID,26,VALID,0.126953,
2011-02-07, 02:28:05,VALID,998.164,VALID,0,VALID,90.4186,VALID,0,VALID,23.7189,VALID,26,VALID,0.168359,
2011-02-07, 02:29:05,VALID,998.138,VALID,0,VALID,90.4797,VALID,0,VALID,23.7402,VALID,26,VALID,0.229297,
2011-02-07, 02:30:05,VALID,998.164,VALID,0,VALID,90.4949,VALID,0,VALID,23.6994,VALID,26,VALID,0.348437,
2011-02-07, 02:31:05,VALID,998.133,VALID,0,VALID,90.472,VALID,0,VALID,23.7012,VALID,26,VALID,0.342578,
2011-02-07, 02:32:05,VALID,998.141,VALID,0,VALID,90.472,VALID,0,VALID,23.7207,VALID,26,VALID,0.216797,
2011-02-07, 02:33:05,VALID,998.109,VALID,0,VALID,90.3957,VALID,0,VALID,23.7207,VALID,26,VALID,0.320313,
2011-02-07, 02:34:05,VALID,998.108,VALID,0,VALID,90.3423,VALID,0,VALID,23.7207,VALID,26,VALID,0.161328,
2011-02-07, 02:35:05,VALID,998.109,VALID,0,VALID,90.2966,VALID,0,VALID,23.7207,VALID,26,VALID,0,
2011-02-07, 02:36:05,VALID,998.102,VALID,0,VALID,90.2126,VALID,0,VALID,23.7402,VALID,26,VALID,0.367188,
2011-02-07, 02:37:05,VALID,998.098,VALID,0,VALID,90.1134,VALID,0.112286,VALID,23.6994,VALID,26,VALID,0.209766,
2011-02-07, 02:38:05,VALID,998.1,VALID,0,VALID,90.0906,VALID,0.112286,VALID,23.6799,VALID,26,VALID,0.317578,
2011-02-07, 02:39:05,VALID,998.07,VALID,0,VALID,90.144,VALID,0,VALID,23.6799,VALID,26,VALID,0.160938,
2011-02-07, 02:40:05,VALID,998.063,VALID,0,VALID,90.1668,VALID,0,VALID,23.6604,VALID,26,VALID,0.146875,
2011-02-07, 02:41:05,VALID,998.084,VALID,0,VALID,90.2584,VALID,0,VALID,23.6409,VALID,26,VALID,0,
2011-02-07, 02:42:05,VALID,998.042,VALID,0,VALID,90.3347,VALID,0,VALID,23.6427,VALID,26,VALID,0,
2011-02-07, 02:43:05,VALID,998.031,VALID,0,VALID,90.4186,VALID,0,VALID,23.6427,VALID,26,VALID,0,
2011-02-07, 02:44:05,VALID,998.03,VALID,0,VALID,90.4644,VALID,0,VALID,23.6622,VALID,26,VALID,0,
2011-02-07, 02:45:05,VALID,997.996,VALID,0,VALID,90.4797,VALID,0,VALID,23.664,VALID,26,VALID,0.0214844,
2011-02-07, 02:46:05,VALID,998.019,VALID,0,VALID,90.4491,VALID,0,VALID,23.664,VALID,26,VALID,0.186328,
2011-02-07, 02:47:05,VALID,997.986,VALID,0,VALID,90.5026,VALID,0,VALID,23.6427,VALID,26,VALID,0.102344,
2011-02-07, 02:48:05,VALID,998.01,VALID,0,VALID,90.5102,VALID,0,VALID,23.6835,VALID,26,VALID,0.171875,
2011-02-07, 02:49:05,VALID,998.008,VALID,0,VALID,90.4873,VALID,0,VALID,23.6427,VALID,26,VALID,0.265625,
2011-02-07, 02:50:05,VALID,998.009,VALID,0,VALID,90.3576,VALID,0,VALID,23.6232,VALID,26,VALID,0.312891,
2011-02-07, 02:51:05,VALID,998.024,VALID,0,VALID,90.3347,VALID,0,VALID,23.6036,VALID,26,VALID,0.38125,
2011-02-07, 02:52:05,VALID,998.051,VALID,0,VALID,90.3576,VALID,0,VALID,23.625,VALID,26,VALID,0.378516,
2011-02-07, 02:53:05,VALID,998.027,VALID,0,VALID,90.3881,VALID,0,VALID,23.6054,VALID,26,VALID,0.285156,
2011-02-07, 02:54:05,VALID,998.007,VALID,0,VALID,90.4339,VALID,0,VALID,23.5841,VALID,26,VALID,0.320313,
2011-02-07, 02:55:05,VALID,997.994,VALID,0,VALID,90.4491,VALID,0,VALID,23.5664,VALID,26,VALID,0.446094,
2011-02-07, 02:56:05,VALID,998.001,VALID,0,VALID,90.5026,VALID,0,VALID,23.5469,VALID,26,VALID,0.482031,
2011-02-07, 02:57:05,VALID,998.002,VALID,0,VALID,90.5407,VALID,0.112286,VALID,23.5061,VALID,26,VALID,0.425781,
2011-02-07, 02:58:05,VALID,997.999,VALID,0,VALID,90.5941,VALID,0.112286,VALID,23.4475,VALID,26,VALID,0.41875,
2011-02-07, 02:59:05,VALID,998.025,VALID,0,VALID,90.7162,VALID,0,VALID,23.4475,VALID,26,VALID,0.408594,
2011-02-07, 03:00:05,VALID,997.99,VALID,0,VALID,90.823,VALID,0,VALID,23.3872,VALID,26,VALID,0.310156,
2011-02-07, 03:01:05,VALID,998.022,VALID,0,VALID,90.8993,VALID,0,VALID,23.389,VALID,26,VALID,0.248828,
2011-02-07, 03:02:05,VALID,997.976,VALID,0,VALID,90.9909,VALID,0,VALID,23.3695,VALID,26,VALID,0.419922,
2011-02-07, 03:03:05,VALID,998.015,VALID,0,VALID,91.1129,VALID,0,VALID,23.389,VALID,26,VALID,0.516016,
2011-02-07, 03:04:05,VALID,998.036,VALID,0,VALID,91.1968,VALID,0,VALID,23.3677,VALID,26,VALID,0.390625,
2011-02-07, 03:05:05,VALID,998.028,VALID,0,VALID,91.2655,VALID,0,VALID,23.3677,VALID,26,VALID,0.486328,
2011-02-07, 03:06:05,VALID,998.003,VALID,0,VALID,91.3571,VALID,0,VALID,23.389,VALID,26,VALID,0.437109,
2011-02-07, 03:07:05,VALID,998.02,VALID,0,VALID,91.3952,VALID,0,VALID,23.3872,VALID,26,VALID,0.513281,
2011-02-07, 03:08:05,VALID,997.978,VALID,0,VALID,91.4334,VALID,0,VALID,23.389,VALID,26,VALID,0.464844,
2011-02-07, 03:09:05,VALID,997.985,VALID,0,VALID,91.4639,VALID,0,VALID,23.3695,VALID,26,VALID,0.58125,
2011-02-07, 03:10:05,VALID,998.009,VALID,0,VALID,91.4791,VALID,0,VALID,23.3482,VALID,26,VALID,0.676172,
2011-02-07, 03:11:05,VALID,998.035,VALID,0,VALID,91.5554,VALID,0,VALID,23.3695,VALID,26,VALID,0.690625,
2011-02-07, 03:12:05,VALID,998.031,VALID,0,VALID,91.5707,VALID,0.112286,VALID,23.3695,VALID,26,VALID,1.01016,
2011-02-07, 03:13:05,VALID,998.063,VALID,0,VALID,91.6088,VALID,0.112286,VALID,23.3677,VALID,26,VALID,0.825,
2011-02-07, 03:14:05,VALID,998.068,VALID,0,VALID,91.6241,VALID,0.112286,VALID,23.3482,VALID,26,VALID,0.868359,
2011-02-07, 03:15:05,VALID,998.054,VALID,0,VALID,91.5783,VALID,0,VALID,23.3287,VALID,26,VALID,0.883203,
2011-02-07, 03:16:05,VALID,998.026,VALID,0,VALID,91.5249,VALID,0.112286,VALID,23.3092,VALID,26,VALID,0.990625,
2011-02-07, 03:17:05,VALID,998.057,VALID,0,VALID,91.4257,VALID,0.112286,VALID,23.2312,VALID,26,VALID,0.979688,
2011-02-07, 03:18:05,VALID,998.06,VALID,0,VALID,91.3494,VALID,0,VALID,23.1726,VALID,26,VALID,1.00898,
2011-02-07, 03:19:05,VALID,998.053,VALID,0,VALID,91.38,VALID,0.112286,VALID,23.1726,VALID,26,VALID,1.05703,
2011-02-07, 03:20:05,VALID,998.066,VALID,0,VALID,91.4639,VALID,0.112286,VALID,23.1531,VALID,26,VALID,1.04609,
2011-02-07, 03:21:05,VALID,998.095,VALID,0,VALID,91.5326,VALID,0.112286,VALID,23.1531,VALID,26,VALID,0.853906,
2011-02-07, 03:22:05,VALID,998.104,VALID,0,VALID,91.6088,VALID,0.112286,VALID,23.1726,VALID,38,VALID,0.811719,
2011-02-07, 03:23:05,VALID,998.124,VALID,0,VALID,91.6623,VALID,0.112286,VALID,23.1921,VALID,47,VALID,0.898047,
2011-02-07, 03:24:05,VALID,998.145,VALID,0,VALID,91.7004,VALID,0.112286,VALID,23.2312,VALID,50,VALID,0.948047,
2011-02-07, 03:25:05,VALID,998.152,VALID,0,VALID,91.6546,VALID,0,VALID,23.2524,VALID,50,VALID,0.812891,
2011-02-07, 03:26:05,VALID,998.16,VALID,0,VALID,91.6394,VALID,0,VALID,23.2702,VALID,50,VALID,0.673437,
2011-02-07, 03:27:05,VALID,998.178,VALID,0,VALID,91.6546,VALID,0,VALID,23.2915,VALID,61,VALID,0.574219,
2011-02-07, 03:28:05,VALID,998.161,VALID,0,VALID,91.6012,VALID,0,VALID,23.2915,VALID,61,VALID,0.465234,
2011-02-07, 03:29:05,VALID,998.178,VALID,0,VALID,91.5936,VALID,0,VALID,23.311,VALID,61,VALID,0.521484,
2011-02-07, 03:30:05,VALID,998.185,VALID,0,VALID,91.6317,VALID,0,VALID,23.2915,VALID,61,VALID,0.459766,
2011-02-07, 03:31:05,VALID,998.201,VALID,0,VALID,91.6241,VALID,0,VALID,23.2932,VALID,61,VALID,0.392969,
2011-02-07, 03:32:05,VALID,998.2,VALID,0,VALID,91.6241,VALID,0,VALID,23.2719,VALID,61,VALID,0.338281,
2011-02-07, 03:33:05,VALID,998.233,VALID,0,VALID,91.6241,VALID,0,VALID,23.2524,VALID,61,VALID,0.102344,
2011-02-07, 03:34:05,VALID,998.236,VALID,0,VALID,91.586,VALID,0,VALID,23.2134,VALID,61,VALID,0,
2011-02-07, 03:35:05,VALID,998.263,VALID,0,VALID,91.5554,VALID,0,VALID,23.1939,VALID,61,VALID,0,
2011-02-07, 03:36:05,VALID,998.247,VALID,0,VALID,91.5783,VALID,0,VALID,23.1744,VALID,61,VALID,0,
2011-02-07, 03:37:05,VALID,998.313,VALID,0,VALID,91.5936,VALID,0,VALID,23.1744,VALID,61,VALID,0,
2011-02-07, 03:38:05,VALID,998.289,VALID,0,VALID,91.6546,VALID,0,VALID,23.1744,VALID,61,VALID,0,
2011-02-07, 03:39:05,VALID,998.306,VALID,0,VALID,91.7385,VALID,0,VALID,23.1939,VALID,61,VALID,0,
2011-02-07, 03:40:05,VALID,998.299,VALID,0,VALID,91.8301,VALID,0,VALID,23.2347,VALID,61,VALID,0,
2011-02-07, 03:41:05,VALID,998.3,VALID,0,VALID,91.8911,VALID,0,VALID,23.2347,VALID,61,VALID,0,
2011-02-07, 03:42:05,VALID,998.271,VALID,0,VALID,91.9064,VALID,0,VALID,23.2134,VALID,61,VALID,0,
2011-02-07, 03:43:05,VALID,998.267,VALID,0,VALID,91.9064,VALID,0,VALID,23.2134,VALID,61,VALID,0,
2011-02-07, 03:44:05,VALID,998.306,VALID,0,VALID,91.853,VALID,0,VALID,23.1744,VALID,61,VALID,0,
2011-02-07, 03:45:05,VALID,998.32,VALID,0,VALID,91.8148,VALID,0,VALID,23.1549,VALID,61,VALID,0,
2011-02-07, 03:46:05,VALID,998.304,VALID,0,VALID,91.7691,VALID,0,VALID,23.1354,VALID,61,VALID,0,
2011-02-07, 03:47:05,VALID,998.318,VALID,0,VALID,91.7538,VALID,0,VALID,23.1354,VALID,61,VALID,0,
2011-02-07, 03:48:05,VALID,998.336,VALID,0,VALID,91.7004,VALID,0,VALID,23.1371,VALID,61,VALID,0,